DateTime,F1_A11,F1_S11,BsB_S11,BsG_S11,BsR_S11,BbsB_S11,BbsG_S11,BbsR_S11,BaB_A11,BaG_A11,BaR_A11,T_S11,U_S11,P_S11,T1_A11
2016-08-22T00:00:00Z,0000382,20000602,,,,,,,,,,27.3,01.5,0675.3,34.8
2016-08-22T00:01:00Z,0000382,20000602,,,,,,,,,,27.3,01.5,0675.3,34.8
2016-08-22T00:02:00Z,0000382,20000602,,,,,,,,,,27.3,01.4,0675.3,34.8
2016-08-22T00:03:00Z,0000382,60000602,,,,,,,,,,27.3,01.3,0675.3,34.8
2016-08-22T00:04:00Z,0000382,41000602,0002.17,0001.65,0002.30,0000.78,0000.30,0000.14,0001.22,0001.16,0000.83,27.3,01.2,0676.2,34.8
2016-08-22T00:05:00Z,0000382,01000602,0001.30,-000.24,-000.10,0000.50,0000.16,-000.42,-000.61,-000.52,-000.67,27.3,01.4,0676.3,34.8
2016-08-22T00:06:00Z,0000382,01000602,0001.02,-000.36,0000.10,-000.27,0000.25,0000.14,0000.09,-000.02,0000.34,27.3,01.1,0676.3,34.8
2016-08-22T00:07:00Z,0000382,01000602,0000.35,0000.09,-000.50,0000.42,-000.12,-000.09,-000.21,-000.13,-000.21,27.3,01.1,0676.2,34.8
2016-08-22T00:08:00Z,0000382,01000602,0000.79,0000.41,-000.09,0000.02,0000.09,0000.08,-000.08,-000.33,-000.47,27.4,01.0,0676.3,34.8
2016-08-22T00:09:00Z,0000382,01000602,-000.30,-000.24,-000.07,0000.17,0000.52,0000.27,-000.30,0000.17,-000.19,27.3,00.9,0676.3,34.8
2016-08-22T00:10:00Z,0000382,01000602,0000.68,-000.09,0000.16,0000.49,0000.39,0000.08,0000.06,-000.27,-000.07,27.4,00.8,0676.3,34.8
2016-08-22T00:11:00Z,0000382,01000602,-000.25,-000.25,0000.09,0000.36,0000.73,-000.44,-000.18,-000.07,0000.04,27.3,00.8,0676.3,34.8
2016-08-22T00:12:00Z,0000382,01000602,0000.75,0000.44,0000.56,0000.38,0000.39,-000.16,-000.02,0000.04,0000.05,27.3,00.7,0676.3,34.8
2016-08-22T00:13:00Z,0000382,01000602,0000.10,0000.32,-000.23,0000.22,0000.02,-000.20,0000.20,0000.18,0000.05,27.3,00.8,0676.3,34.8
2016-08-22T00:14:00Z,0000382,01000602,0000.41,0000.02,0000.07,-000.36,0000.47,0000.03,0000.19,0000.12,0000.24,27.3,00.9,0676.3,34.8
2016-08-22T00:15:00Z,0000382,01000602,0000.22,0000.25,-000.14,0000.47,0000.16,0000.13,0000.10,0000.15,0000.10,27.4,00.9,0676.3,34.8
2016-08-22T00:16:00Z,0000382,01000602,0000.26,-000.63,0000.06,-000.06,0000.16,0000.05,-000.31,-000.09,-000.04,27.3,01.0,0676.3,34.8
2016-08-22T00:17:00Z,0000382,01000602,0000.80,-000.18,0000.21,0000.41,0000.52,-000.20,0000.21,-000.00,-000.10,27.4,01.0,0676.3,34.8
2016-08-22T00:18:00Z,0000382,01000602,0000.98,0000.50,0000.17,0000.64,0000.48,0000.06,0000.17,0000.09,0000.05,27.3,01.0,0676.3,34.8
2016-08-22T00:19:00Z,0000382,01000602,0000.87,-000.25,0000.11,0001.27,-000.23,-000.13,0000.05,0000.07,0000.14,27.3,01.0,0676.3,34.8
2016-08-22T00:20:00Z,0000382,01000602,0001.06,-000.22,0000.64,0000.06,0000.09,0000.16,0000.42,0000.60,0000.59,27.3,01.1,0676.3,34.8
2016-08-22T00:21:00Z,0000382,01000602,0000.41,-000.02,0000.05,0000.38,0000.45,0000.17,0000.06,-000.19,-000.35,27.3,01.1,0676.3,34.8
2016-08-22T00:22:00Z,0000382,01000602,0000.34,-000.57,-000.07,0000.50,0000.41,0000.05,-000.23,-000.10,-000.21,27.3,01.1,0676.3,34.8
2016-08-22T00:23:00Z,0000382,01000602,0001.18,0000.41,0000.47,0000.55,0000.14,-000.03,0000.22,0000.39,0000.36,27.3,01.0,0676.3,34.8
2016-08-22T00:24:00Z,0000382,01000602,0000.25,0000.33,0000.26,0000.55,0000.45,-000.19,-000.13,-000.40,-000.28,27.3,01.0,0676.3,34.8
2016-08-22T00:25:00Z,0000382,01000602,0000.50,-000.31,0000.10,0000.03,0000.33,0000.22,-000.02,0000.03,0000.24,27.3,00.9,0676.3,34.8
2016-08-22T00:26:00Z,0000382,01000602,0000.32,-000.03,-000.23,0000.42,0000.02,0000.13,0000.05,0000.10,-000.27,27.3,01.0,0676.3,34.8
2016-08-22T00:27:00Z,0000382,01000602,-000.41,0000.35,0000.27,0001.02,0000.20,-000.58,-000.12,-000.08,0000.25,27.3,00.9,0676.3,34.8
2016-08-22T00:28:00Z,0000382,01000602,0004.44,0004.24,0006.94,0000.66,0001.50,0001.21,0003.09,0002.78,0001.99,27.3,01.0,0676.3,34.8
2016-08-22T00:29:00Z,0000382,01000602,0002.81,0001.43,0002.19,0000.85,0000.86,0000.78,0000.63,0000.52,0000.43,27.3,01.7,0676.3,34.8
2016-08-22T00:30:00Z,0000382,01000602,-000.52,0002.00,0002.14,0000.55,0000.17,-000.02,0000.70,0000.49,0000.36,27.3,01.1,0676.3,34.8
2016-08-22T00:31:00Z,0000382,01000602,0000.04,-000.55,0000.10,-000.05,0000.37,0000.14,-000.30,-000.18,-000.41,27.3,00.9,0676.3,34.8
2016-08-22T00:32:00Z,0000382,01000602,0005.84,0008.24,0010.45,0001.66,0001.62,0001.62,0005.51,0005.10,0004.46,27.3,01.1,0676.3,34.8
2016-08-22T00:33:00Z,0000382,01000602,0001.04,0000.10,-000.29,0000.00,-000.03,-000.09,-001.41,-001.52,-001.67,27.3,01.5,0676.3,34.8
2016-08-22T00:34:00Z,0000382,01000602,0000.31,-000.35,0000.51,-000.25,-000.11,0000.09,-000.04,-000.24,-000.43,27.3,00.9,0676.3,34.8
2016-08-22T00:35:00Z,0000382,01000602,0000.04,-000.25,-000.23,0000.50,0000.73,0000.05,-000.28,-000.18,-000.24,27.3,00.8,0676.3,34.8
2016-08-22T00:36:00Z,0000382,01000602,0000.04,-000.35,-000.02,0000.33,0000.16,0000.09,-000.07,-000.30,-000.07,27.3,00.7,0676.3,34.8
2016-08-22T00:37:00Z,0000382,01000602,0001.05,0000.26,-000.15,0000.11,0000.00,0000.19,-000.32,0000.05,0000.05,27.3,00.7,0676.3,34.8
2016-08-22T00:38:00Z,0000382,01000602,0000.12,0000.09,-000.06,-000.20,0000.31,-000.47,0000.31,-000.05,-000.04,27.3,00.7,0676.3,34.8
2016-08-22T00:39:00Z,0000382,01000602,-000.19,0000.42,-000.14,-000.22,0000.22,-000.44,-000.08,0000.07,0000.12,27.3,00.6,0676.3,34.8
2016-08-22T00:40:00Z,0000382,01000602,0000.35,0000.09,0000.05,0000.42,0000.37,-000.24,0000.07,-000.08,-000.30,27.2,00.6,0676.3,34.8
2016-08-22T00:41:00Z,0000382,01000602,-000.14,0000.19,0000.09,0000.96,0000.23,-000.28,0000.11,0000.16,0000.05,27.2,00.7,0676.4,34.8
2016-08-22T00:42:00Z,0000382,01000602,0004.82,0006.06,0008.55,0001.27,0001.33,0001.49,0003.55,0003.28,0002.69,27.2,01.4,0676.4,34.8
2016-08-22T00:43:00Z,0000382,01000602,0001.08,0000.62,0000.11,0000.11,0000.12,-000.06,-000.43,-000.41,-000.31,27.2,00.9,0676.4,34.8
2016-08-22T00:44:00Z,0000382,01000602,0000.62,-000.17,0000.04,-000.06,0000.42,-000.39,-000.10,-000.19,-000.11,27.2,00.7,0676.4,34.8
2016-08-22T00:45:00Z,0000382,01000602,-000.06,-000.06,0000.00,0000.20,0000.58,0000.30,-000.07,-000.07,0000.10,27.2,00.6,0676.4,34.7
2016-08-22T00:46:00Z,0000382,01000602,0000.74,0000.07,-000.17,0000.20,0000.44,0000.30,0000.09,0000.05,0000.06,27.2,00.5,0676.4,34.7
2016-08-22T00:47:00Z,0000382,01000602,0000.81,-000.38,0000.16,-000.06,-000.02,-000.13,-000.12,-000.08,-000.38,27.2,00.6,0676.4,34.7
2016-08-22T00:48:00Z,0000382,01000602,0000.41,-000.38,-000.57,0000.70,0000.22,-000.05,0000.01,0000.11,0000.24,27.2,00.6,0676.4,34.7
2016-08-22T00:49:00Z,0000382,01000602,0000.59,0000.23,-000.16,0000.11,0000.44,0000.11,-000.22,-000.11,-000.13,27.2,00.5,0676.4,34.7
2016-08-22T00:50:00Z,0000382,01000602,0000.13,0000.23,0000.33,0000.27,0000.83,0000.06,-000.05,-000.20,-000.52,27.2,00.6,0676.4,34.7
2016-08-22T00:51:00Z,0000382,01000602,0000.93,-000.07,0000.39,0000.11,-000.30,0000.19,0000.05,0000.16,0000.54,27.2,00.5,0676.5,34.7
2016-08-22T00:52:00Z,0000382,01000602,0000.40,-000.45,0000.07,0000.34,0000.37,0000.53,-000.05,-000.04,0000.08,27.3,00.4,0676.4,34.7
2016-08-22T00:53:00Z,0000382,01000602,-000.54,0000.14,0000.32,0001.08,0000.19,-000.14,-000.01,-000.19,-000.20,27.3,00.5,0676.4,34.7
2016-08-22T00:54:00Z,0000382,01000602,0000.34,-000.18,-000.69,-000.05,0000.22,-000.28,-000.09,0000.10,-000.09,27.2,00.6,0676.5,34.7
2016-08-22T00:55:00Z,0000382,01000602,0000.49,-000.68,0000.45,0000.08,0000.75,-000.02,-000.09,-000.21,-000.13,27.3,00.5,0676.5,34.7
2016-08-22T00:56:00Z,0000382,01000602,0000.37,0000.12,0000.26,0000.44,0000.56,-000.42,0000.19,0000.10,0000.15,27.3,00.5,0676.5,34.7
2016-08-22T00:57:00Z,0000382,41000602,,,,,,,,,,,,0676.5,34.7
2016-08-22T00:58:00Z,0000382,61000602,,,,,,,,,,27.2,00.8,0675.5,34.7
2016-08-22T00:59:00Z,0000382,21000602,,,,,,,,,,27.2,00.6,0675.5,34.7
2016-08-22T01:00:00Z,0000382,21000602,,,,,,,,,,27.2,00.6,0675.5,34.8
2016-08-22T01:01:00Z,0000382,21000602,,,,,,,,,,27.2,00.6,0675.5,34.8
2016-08-22T01:02:00Z,0000382,21000602,,,,,,,,,,27.2,00.5,0675.5,34.8
2016-08-22T01:03:00Z,0000382,61000602,,,,,,,,,,27.2,00.4,0675.5,34.8
2016-08-22T01:04:00Z,0000382,41000602,-000.28,0000.12,0000.11,-000.70,-000.44,0000.24,0000.06,0000.22,0000.25,27.2,00.6,0676.4,34.8
2016-08-22T01:05:00Z,0000382,01000602,0001.41,0001.03,0002.26,-000.72,0000.03,-000.08,0000.57,0000.52,0000.59,27.2,00.7,0676.5,34.8
2016-08-22T01:06:00Z,0000382,01000602,0000.79,0000.47,-000.48,0000.20,-000.03,-000.27,-000.25,-000.47,-000.57,27.2,00.8,0676.5,34.8
2016-08-22T01:07:00Z,0000382,01000602,-000.16,-000.06,-000.05,-000.14,-000.20,0000.27,0000.12,0000.08,0000.31,27.2,00.7,0676.5,34.8
2016-08-22T01:08:00Z,0000382,01000602,-000.68,0000.48,0000.18,-000.20,-000.34,-000.25,-000.06,-000.06,-000.08,27.2,00.7,0676.4,34.8
2016-08-22T01:09:00Z,0000382,01000602,-000.05,0000.02,-000.21,-000.19,-000.02,0000.08,-000.08,0000.20,0000.07,27.3,00.7,0676.4,34.8
2016-08-22T01:10:00Z,0000382,01000602,-000.27,-000.09,-000.12,0000.14,-000.16,-000.22,0000.03,-000.29,-000.06,27.3,00.7,0676.5,34.8
2016-08-22T01:11:00Z,0000382,01000602,0000.07,0000.39,-000.22,0000.02,0000.36,-000.27,-000.07,0000.09,0000.13,27.3,00.7,0676.4,34.8
2016-08-22T01:12:00Z,0000382,01000602,0000.06,-000.76,0000.69,0000.53,-000.05,0000.16,0000.13,0000.02,-000.32,27.3,00.6,0676.4,34.8
2016-08-22T01:13:00Z,0000382,01000602,-000.43,0000.11,-000.14,-000.31,-000.48,0000.14,0000.16,0000.30,0000.56,27.3,00.7,0676.4,34.8
2016-08-22T01:14:00Z,0000382,01000602,0000.27,-000.18,0000.35,-000.25,-000.25,0000.19,0000.16,0000.15,-000.09,27.3,00.8,0676.4,34.8
2016-08-22T01:15:00Z,0000382,01000602,0000.41,0000.71,0000.20,-000.14,0000.41,0000.11,0000.29,0000.27,0000.32,27.3,00.9,0676.4,34.8
2016-08-22T01:16:00Z,0000382,01000602,-000.15,-000.18,-000.02,0001.00,-000.50,0000.06,0000.15,-000.01,0000.18,27.3,01.0,0676.4,34.8
2016-08-22T01:17:00Z,0000382,01000602,0000.21,0001.06,0001.42,-000.17,0000.48,0000.14,0000.71,0000.92,0000.67,27.3,01.2,0676.4,34.8
2016-08-22T01:18:00Z,0000382,01000602,-000.88,0000.41,-000.16,0000.03,0000.06,-000.25,-000.23,-000.30,-000.32,27.3,01.2,0676.3,34.8
2016-08-22T01:19:00Z,0000382,01000602,0001.95,0001.59,0001.93,-000.02,0000.28,0000.41,0000.84,0000.79,0000.73,27.3,01.2,0676.3,34.8
2016-08-22T01:20:00Z,0000382,01000602,-000.14,0000.93,0000.78,-000.34,-000.03,0000.14,0000.05,-000.01,0000.06,27.3,01.3,0676.3,34.8
2016-08-22T01:21:00Z,0000382,01000602,0000.45,0000.35,0000.13,-000.17,0000.02,-000.08,0000.08,0000.02,-000.04,27.3,01.1,0676.3,34.8
2016-08-22T01:22:00Z,0000382,01000602,0000.37,-000.70,0000.26,-000.36,0000.02,-000.47,-000.26,-000.01,-000.15,27.3,01.1,0676.3,34.8
2016-08-22T01:23:00Z,0000382,01000602,-000.09,-000.26,0000.11,-000.02,-000.12,-000.09,0000.03,-000.15,-000.05,27.3,01.1,0676.3,34.8
2016-08-22T01:24:00Z,0000382,01010602,-000.43,0000.47,0000.04,-000.75,-000.08,0000.08,-000.01,-000.14,-000.24,27.3,01.0,0676.3,34.8
2016-08-22T01:25:00Z,0000382,01000602,0004.06,0004.85,0006.15,0000.52,0000.72,0000.77,0003.21,0003.05,0002.54,27.3,01.4,0676.3,34.8
2016-08-22T01:26:00Z,0000382,01000602,0000.02,-000.29,-000.66,0000.19,-000.47,-000.16,-000.63,-000.52,-000.59,27.3,01.3,0676.3,34.8
2016-08-22T01:27:00Z,0000382,01000602,-000.02,0000.30,0000.09,-000.24,0000.02,0000.00,-000.23,-000.39,-000.22,27.3,01.0,0676.3,34.8
2016-08-22T01:28:00Z,0000382,01000602,0000.43,0000.19,-000.31,0000.17,0000.05,-000.44,-000.06,-000.15,-000.42,27.3,01.0,0676.3,34.8
2016-08-22T01:29:00Z,0000382,01000602,0000.04,0000.99,0000.76,0000.45,-000.14,0000.27,0000.46,0000.47,0000.62,27.3,00.9,0676.3,34.8
2016-08-22T01:30:00Z,0000382,01000602,0000.17,0000.49,0000.00,-000.17,-000.25,-000.09,-000.42,-000.64,-000.74,27.3,00.9,0676.3,34.8
2016-08-22T01:31:00Z,0000382,01000602,0000.04,-000.06,0000.07,-000.25,-000.20,0000.14,-000.20,0000.24,-000.02,27.3,00.8,0676.3,34.8
2016-08-22T01:32:00Z,0000382,01000602,-000.27,0000.52,-000.28,0000.16,-000.28,-000.02,0000.04,-000.26,-000.08,27.3,00.8,0676.4,34.8
2016-08-22T01:33:00Z,0000382,01000602,-000.54,0000.03,0000.11,0000.44,-000.12,0000.19,0000.07,-000.29,0000.21,27.3,00.7,0676.4,34.8
2016-08-22T01:34:00Z,0000382,01000602,-000.12,0000.09,-000.18,-000.20,0000.06,-000.20,-000.23,0000.21,-000.32,27.3,00.6,0676.4,34.8
2016-08-22T01:35:00Z,0000382,01000602,0000.16,0000.35,0000.16,0000.56,-000.30,0000.47,0000.06,-000.31,0000.05,27.3,00.5,0676.4,34.8
2016-08-22T01:36:00Z,0000382,01000602,-000.16,0000.23,-000.54,0000.55,-000.59,-000.14,-000.10,0000.12,-000.18,27.3,00.6,0676.4,34.8
2016-08-22T01:37:00Z,0000382,01000602,-000.20,0000.05,-000.10,0000.33,-000.27,0000.25,-000.27,-000.22,0000.15,27.3,00.5,0676.4,34.8
2016-08-22T01:38:00Z,0000382,01000602,0000.97,0000.39,-000.06,-000.02,-000.05,0000.13,0000.17,0000.19,-000.13,27.3,00.5,0676.4,34.8
2016-08-22T01:39:00Z,0000382,01000602,-000.94,-000.35,-000.41,0000.06,-000.34,-000.17,-000.14,-000.20,0000.04,27.3,00.5,0676.3,34.8
2016-08-22T01:40:00Z,0000382,01000602,-000.07,0000.42,0000.17,-000.09,-000.17,-000.20,0000.03,-000.21,-000.29,27.3,00.5,0676.3,34.8
2016-08-22T01:41:00Z,0000382,01000602,-000.20,0000.19,0000.19,0000.11,-000.16,-000.35,-000.11,0000.18,-000.03,27.3,00.4,0676.3,34.8
2016-08-22T01:42:00Z,0000382,01000602,-000.76,-000.03,0000.07,-000.02,-000.17,-000.27,0000.14,0000.07,0000.21,27.3,00.5,0676.3,34.8
2016-08-22T01:43:00Z,0000382,01000602,-000.16,0000.37,0000.21,-000.16,-000.06,0000.06,0000.19,0000.10,0000.18,27.3,00.4,0676.3,34.8
2016-08-22T01:44:00Z,0000382,01000602,0000.43,0000.27,-000.54,0000.14,0000.17,-000.25,-000.34,0000.00,-000.31,27.3,00.4,0676.3,34.8
2016-08-22T01:45:00Z,0000382,01000602,0001.59,0000.97,0001.73,-000.06,0000.42,0000.30,0000.97,0000.54,0000.84,27.3,00.5,0676.3,34.8
2016-08-22T01:46:00Z,0000382,01000602,0000.12,0000.26,0000.43,0000.80,-000.58,-000.25,-000.20,-000.01,0000.09,27.3,00.6,0676.4,34.8
2016-08-22T01:47:00Z,0000382,01000602,0001.15,0001.57,0001.03,-000.06,0000.14,0000.14,0000.32,0000.15,0000.01,27.3,00.5,0676.4,34.8
2016-08-22T01:48:00Z,0000382,01000602,-000.25,-000.35,-000.36,0000.22,-000.19,0000.03,0000.04,-000.21,-000.55,27.3,00.4,0676.4,34.8
2016-08-22T01:49:00Z,0000382,01000602,-000.85,-000.13,-000.04,0000.14,-000.34,-000.14,-000.09,0000.04,-000.01,27.3,00.3,0676.4,34.8
2016-08-22T01:50:00Z,0000382,01000602,-000.15,0000.51,0000.34,-000.16,-000.17,0000.28,-000.00,-000.05,-000.05,27.2,00.3,0676.4,34.8
2016-08-22T01:51:00Z,0000382,01000602,-001.27,0000.27,-000.10,0000.19,-000.28,-000.05,-000.11,-000.05,0000.14,27.3,00.3,0676.3,34.8
2016-08-22T01:52:00Z,0000382,01000602,0000.45,0000.71,0000.28,0000.44,0000.06,0000.11,0000.09,0000.26,0000.16,27.2,00.3,0676.4,34.8
2016-08-22T01:53:00Z,0000382,01000602,-000.17,0000.51,-000.19,0000.36,0000.06,-000.33,0000.10,-000.08,-000.11,27.2,00.3,0676.3,34.8
2016-08-22T01:54:00Z,0000382,01000602,-000.49,-000.39,0000.16,0000.19,0000.06,0000.19,-000.06,-000.04,-000.19,27.2,00.3,0676.3,34.8
2016-08-22T01:55:00Z,0000382,01000602,0000.72,0000.16,-000.33,-000.36,-000.28,-000.19,-000.18,0000.03,0000.24,27.2,00.3,0676.3,34.8
2016-08-22T01:56:00Z,0000382,01000602,0000.44,0000.22,-000.23,-000.33,0000.17,-000.47,0000.11,-000.06,-000.11,27.2,00.3,0676.3,34.8
2016-08-22T01:57:00Z,0000382,41000602,,,,,,,,,,,,0676.1,34.8
2016-08-22T01:58:00Z,0000382,61000602,,,,,,,,,,27.1,00.4,0675.3,34.8
2016-08-22T01:59:00Z,0000382,21000602,,,,,,,,,,27.0,00.3,0675.3,34.8
2016-08-22T02:00:00Z,0000382,21000602,,,,,,,,,,27.1,00.3,0675.3,34.8
2016-08-22T02:01:00Z,0000382,21000602,,,,,,,,,,27.2,00.3,0675.3,34.8
2016-08-22T02:02:00Z,0000382,21000602,,,,,,,,,,27.2,00.3,0675.3,34.8
2016-08-22T02:03:00Z,0000382,61000602,,,,,,,,,,27.2,00.3,0675.3,34.8
2016-08-22T02:04:00Z,0000382,41000602,0000.10,0000.63,-000.78,0000.28,-000.33,-000.49,-000.01,0000.09,0000.10,27.3,00.2,0676.2,34.8
2016-08-22T02:05:00Z,0000382,01000602,0000.40,0000.53,-000.02,0000.38,-000.25,-000.19,-000.13,-000.12,-000.37,27.3,00.2,0676.3,34.8
2016-08-22T02:06:00Z,0000382,01000602,0000.87,-000.06,0000.05,0000.14,-000.02,0000.13,-000.16,-000.10,0000.14,27.3,00.2,0676.3,34.8
2016-08-22T02:07:00Z,0000382,01000602,-000.21,0000.35,0000.08,0000.27,-000.41,-000.16,-000.06,-000.20,-000.23,27.3,00.2,0676.2,34.8
2016-08-22T02:08:00Z,0000382,01000602,0000.33,0000.04,-000.24,0000.91,-000.02,-000.24,0000.15,-000.01,0000.06,27.3,00.1,0676.2,34.8
2016-08-22T02:09:00Z,0000382,01000602,-000.58,0000.22,-000.53,0000.42,-000.62,-000.27,-000.10,0000.15,0000.15,27.3,00.2,0676.3,34.8
2016-08-22T02:10:00Z,0000382,01000602,0000.81,0000.68,0000.12,-000.38,-000.34,-000.16,-000.00,0000.17,0000.09,27.3,00.3,0676.3,34.8
2016-08-22T02:11:00Z,0000382,01000602,-000.36,-000.52,-000.06,0000.66,-000.08,-000.13,0000.45,0000.17,0000.50,27.2,00.3,0676.2,34.8
2016-08-22T02:12:00Z,0000382,01000602,0000.05,-000.14,0000.08,0000.02,-000.34,0000.02,-000.17,-000.02,-000.05,27.2,00.4,0676.3,34.8
2016-08-22T02:13:00Z,0000382,01000602,0000.08,0000.06,-000.27,-000.09,0000.20,-000.14,0000.31,0000.09,-000.23,27.2,00.3,0676.3,34.8
2016-08-22T02:14:00Z,0000382,01000602,0000.56,-000.72,-000.31,-000.22,-000.16,0000.05,-000.29,-000.29,-000.01,27.2,00.3,0676.3,34.8
2016-08-22T02:15:00Z,0000382,01000602,0000.81,-000.21,-000.54,-000.24,-000.41,-000.22,-000.10,0000.02,-000.17,27.2,00.3,0676.3,34.7
2016-08-22T02:16:00Z,0000382,01000602,0000.32,-000.04,0000.59,0000.47,-000.12,0000.27,0000.30,0000.05,0000.09,27.1,00.3,0676.3,34.7
2016-08-22T02:17:00Z,0000382,01000602,-001.14,-000.04,0000.05,-000.44,0000.11,-000.25,-000.04,0000.24,0000.28,27.1,00.3,0676.3,34.7
2016-08-22T02:18:00Z,0000382,01000602,0000.29,0000.14,0000.00,0000.14,0000.19,-000.22,-000.05,0000.19,-000.18,27.2,00.3,0676.2,34.7
2016-08-22T02:19:00Z,0000382,01000602,0000.20,-000.60,-000.31,-000.16,-000.27,-000.08,0000.25,0000.05,0000.32,27.1,00.4,0676.2,34.7
2016-08-22T02:20:00Z,0000382,01000602,-000.05,0000.32,-000.05,0000.44,-000.12,-000.03,-000.07,-000.04,0000.20,27.2,00.6,0676.2,34.7
2016-08-22T02:21:00Z,0000382,01000602,0000.20,-000.78,-000.17,0000.53,-000.41,-000.19,0000.04,0000.08,0000.06,27.2,00.5,0676.2,34.7
2016-08-22T02:22:00Z,0000382,01000602,-000.90,0000.30,-000.03,-000.03,-000.39,0000.19,-000.00,-000.10,-000.26,27.2,00.6,0676.2,34.7
2016-08-22T02:23:00Z,0000382,01000602,0000.07,0000.28,-000.17,0000.42,-000.08,-000.05,-000.25,0000.07,-000.02,27.2,00.5,0676.1,34.7
2016-08-22T02:24:00Z,0000382,01000602,-000.26,0000.07,0000.80,0000.27,-000.23,0000.30,0000.27,0000.10,0000.08,27.2,00.5,0676.1,34.7
2016-08-22T02:25:00Z,0000382,01000602,0000.90,0000.11,0000.19,0000.27,-000.12,-000.09,-000.01,-000.14,-000.05,27.2,00.5,0676.1,34.7
2016-08-22T02:26:00Z,0000382,01000602,-000.46,-000.61,0000.06,0000.50,-000.23,-000.25,-000.42,-000.17,0000.24,27.2,00.3,0676.1,34.7
2016-08-22T02:27:00Z,0000382,01000602,0001.48,0004.03,0003.74,0000.36,0000.53,0000.31,0001.58,0001.47,0000.85,27.2,00.7,0676.1,34.7
2016-08-22T02:28:00Z,0000382,01000602,0000.74,0000.39,-000.20,-000.27,-000.33,-000.19,-000.06,-000.06,-000.25,27.3,00.5,0676.1,34.7
2016-08-22T02:29:00Z,0000382,01000602,0000.61,-000.19,-000.11,0000.67,-000.09,-000.16,0000.17,-000.11,-000.16,27.3,00.3,0676.2,34.7
2016-08-22T02:30:00Z,0000382,01000602,0000.02,0000.06,0000.06,0000.24,-000.14,0000.20,-000.18,-000.09,-000.12,27.3,00.4,0676.2,34.8
2016-08-22T02:31:00Z,0000382,01000602,0000.06,0000.49,-000.12,0000.69,-000.19,-000.11,-000.03,0000.08,0000.22,27.3,00.4,0676.1,34.8
2016-08-22T02:32:00Z,0000382,01000602,0000.50,0000.02,-000.29,0000.25,0000.03,-000.17,0000.15,-000.07,-000.09,27.3,00.4,0676.1,34.8
2016-08-22T02:33:00Z,0000382,01000602,0000.86,-000.13,-000.25,0000.61,-000.09,-000.28,0000.02,-000.04,0000.10,27.3,00.4,0676.1,34.8
2016-08-22T02:34:00Z,0000382,01000602,-000.38,0000.36,0000.09,-000.33,-000.30,-000.13,-000.18,0000.08,0000.34,27.3,00.4,0676.1,34.8
2016-08-22T02:35:00Z,0000382,01000602,-000.19,0000.46,-000.38,0000.42,0000.22,-000.17,-000.05,-000.08,-000.39,27.3,00.4,0676.1,34.8
2016-08-22T02:36:00Z,0000382,01000602,0000.83,0000.12,0000.27,0000.28,-000.41,0000.44,0000.14,0000.32,-000.12,27.3,00.4,0676.1,34.8
2016-08-22T02:37:00Z,0000382,01000602,-000.54,0000.81,0000.00,0000.56,-000.09,0000.06,0000.28,-000.01,0000.35,27.3,00.5,0676.1,34.8
2016-08-22T02:38:00Z,0000382,01000602,0000.44,0000.24,-000.01,-000.19,-000.44,-000.14,-000.15,-000.03,0000.34,27.3,00.4,0676.1,34.8
2016-08-22T02:39:00Z,0000382,01000602,-000.52,-000.19,-000.21,-000.52,-000.09,-000.06,0000.25,0000.11,-000.14,27.3,00.5,0676.1,34.8
2016-08-22T02:40:00Z,0000382,01000602,0000.62,-000.16,0000.09,-000.38,-000.08,0000.50,0000.03,0000.00,0000.11,27.3,00.5,0676.1,34.8
2016-08-22T02:41:00Z,0000382,01000602,0000.19,0000.00,0000.02,0000.06,-000.23,0000.24,-000.11,0000.05,-000.15,27.3,00.5,0676.1,34.8
2016-08-22T02:42:00Z,0000382,01000602,0000.03,-000.03,0000.03,0000.38,0000.12,-000.25,-000.01,0000.18,-000.04,27.4,00.5,0676.1,34.8
2016-08-22T02:43:00Z,0000382,01000602,-000.74,0000.29,-000.26,0000.66,-000.20,0000.27,-000.05,-000.36,-000.39,27.4,00.5,0676.1,34.8
2016-08-22T02:44:00Z,0000382,01000602,0000.88,0000.48,0000.05,0000.17,-000.17,-000.13,0000.37,0000.65,0000.82,27.4,00.6,0676.1,34.8
2016-08-22T02:45:00Z,0000382,01000602,0000.36,0000.54,0000.26,0000.39,-000.30,-000.08,-000.09,-000.15,-000.49,27.4,00.6,0676.1,34.8
2016-08-22T02:46:00Z,0000382,01000602,0001.21,0000.38,0000.01,0000.06,-000.36,0000.14,0000.31,-000.05,0000.45,27.4,00.5,0676.1,34.8
2016-08-22T02:47:00Z,0000382,01000602,0000.33,-000.17,-000.40,-000.30,0000.44,-000.05,-000.27,0000.07,0000.04,27.4,00.5,0676.1,34.8
2016-08-22T02:48:00Z,0000382,01000602,0000.09,-000.09,0000.08,0001.22,0000.09,-000.19,0000.22,0000.10,0000.10,27.4,00.5,0676.1,34.8
2016-08-22T02:49:00Z,0000382,01000602,-001.25,0000.18,-000.35,0000.86,-000.42,0000.00,-000.23,0000.07,-000.00,27.5,00.6,0676.1,34.8
2016-08-22T02:50:00Z,0000382,01000602,0000.91,0000.50,0000.11,-000.17,-000.09,-000.11,0000.09,-000.20,0000.18,27.5,00.6,0676.1,34.8
2016-08-22T02:51:00Z,0000382,01000602,0000.58,0000.50,0000.07,0000.82,-000.36,-000.17,0000.13,-000.06,-000.21,27.5,00.6,0676.0,34.8
2016-08-22T02:52:00Z,000038A,0100060A,-000.16,0000.10,0000.00,0000.11,-000.16,-000.06,-000.00,0000.21,-000.01,27.5,00.6,0676.0,34.8
2016-08-22T02:53:00Z,000038A,0100060A,-000.06,0000.27,-000.12,0000.44,-000.08,-000.19,-000.07,-000.04,-000.05,27.5,00.6,0676.0,34.8
2016-08-22T02:54:00Z,000038A,0100060A,-001.17,-000.07,0000.28,0000.38,-000.14,-000.31,-000.06,0000.01,0000.19,27.5,00.7,0676.0,34.8
2016-08-22T02:55:00Z,000038A,0100060A,0002.06,0002.31,0003.29,0001.05,-000.14,0000.17,0001.32,0001.21,0000.74,27.5,00.8,0676.0,34.8
2016-08-22T02:56:00Z,000038A,0100060A,0000.07,0000.48,0000.23,0000.44,0000.00,0000.05,0000.15,-000.05,0000.19,27.5,00.8,0676.0,34.8
2016-08-22T02:57:00Z,000038A,4100060A,,,,,,,,,,,,0676.3,34.8
2016-08-22T02:58:00Z,000038A,6100060A,,,,,,,,,,27.5,00.5,0675.1,34.8
2016-08-22T02:59:00Z,000038A,2100060A,,,,,,,,,,27.5,00.6,0675.0,34.8
2016-08-22T03:00:00Z,000038A,2100060A,,,,,,,,,,27.5,00.6,0675.0,34.8
2016-08-22T03:01:00Z,000038A,2100060A,,,,,,,,,,27.5,00.7,0675.0,34.8
2016-08-22T03:02:00Z,000038A,2100060A,,,,,,,,,,27.5,00.8,0675.0,34.8
2016-08-22T03:03:00Z,000038A,6100060A,,,,,,,,,,27.5,00.8,0675.0,34.8
2016-08-22T03:04:00Z,000038A,4100060A,-000.40,0000.48,-000.14,-000.09,-000.23,0000.49,-000.21,-000.10,-000.10,27.5,01.0,0675.9,34.8
2016-08-22T03:05:00Z,000038A,0100060A,0000.27,0000.30,0000.07,-000.53,-000.03,0000.20,0000.14,0000.02,-000.10,27.5,01.0,0676.0,34.8
2016-08-22T03:06:00Z,000038A,0100060A,-000.51,-000.25,-000.47,-000.14,0000.08,0000.09,-000.01,-000.02,-000.01,27.4,00.9,0676.0,34.8
2016-08-22T03:07:00Z,000038A,0100060A,-001.12,0000.78,-000.31,-000.60,-000.02,0000.31,0000.14,-000.21,0000.14,27.4,00.9,0676.0,34.8
2016-08-22T03:08:00Z,000038A,0100060A,0000.14,0000.64,-000.47,-000.50,0000.14,-000.13,-000.16,0000.21,-000.34,27.4,00.9,0675.9,34.8
2016-08-22T03:09:00Z,000038A,0100060A,0000.56,0000.25,-000.26,0000.13,0000.23,0000.11,0000.01,0000.03,0000.17,27.4,00.9,0675.9,34.8
2016-08-22T03:10:00Z,000038A,0100060A,0000.13,0000.51,0000.31,-000.16,0000.44,-000.06,0000.26,0000.23,0000.31,27.4,00.9,0675.9,34.8
2016-08-22T03:11:00Z,000038A,0100060A,-000.58,0000.07,-000.03,-000.67,-000.06,0000.03,0000.05,-000.05,-000.09,27.4,00.9,0675.9,34.8
2016-08-22T03:12:00Z,000038A,0100060A,0000.32,0000.16,-000.24,-000.17,-000.22,-000.02,-000.24,-000.10,-000.01,27.4,00.9,0675.9,34.8